Home   Weather   Schwäbisch Hall   Past weeks

Flag for Germany Past Weather in Schwäbisch Hall, Baden-Württemberg, Germany — Yesterday and Last 2 Weeks

Now
63 °F

Passing clouds.


Feels Like: 63 °F
Forecast: 49 / 69 °F
Wind: 2 mph from South

Location: Niederstetten

Current Time: Sep 25, 2016 at 9:21:39 PM

Latest Report: Sep 25, 2016 at 8:20 PM


Visibility: N/A

Pressure: 30.12 "Hg

Humidity: 68%

Dew Point: 52 °F

Location of Schwäbisch HallLocation

Past Weather in Schwäbisch Hall — Graph

°F

Schwäbisch Hall Temperature Yesterday

Maximum temperature yesterday: 70 °F (at 2:20 PM)
Minimum temperature yesterday: 48 °F (at 3:20 AM)
Average temperature yesterday: 58 °F

High & Low Weather Summary for the Past Weeks

 TemperatureHumidityPressure
High86 °F (Sep 12, 3:20 PM)100% (Sep 18, 7:20 PM)30.33 "Hg (Sep 18, 7:20 PM)
Low43 °F (Sep 22, 5:20 AM)31% (Sep 12, 3:20 PM)29.86 "Hg (Sep 15, 5:20 AM)
Average62 °F69%30.06 "Hg
* Reported Sep 10 7:20 PM — Sep 25 7:20 PM, Schwäbisch Hall, Weather by CustomWeather, © 2016

Note: Actual official high and low records may vary slightly from our data, if they occured in-between our weather recording intervals... More about our weather records

Advertising

Schwäbisch Hall Weather History for the Previous 24 Hours

Scroll right to see more
 ConditionsComfort  
Time TempWeatherWind HumidityBarometerVisibility
7:20 PM
Sun, Sep 25
66 °FPassing clouds.5 mph56%30.12 "HgN/A
6:20 PM72 °FPassing clouds.5 mph47%30.12 "HgN/A
5:20 PM72 °FPassing clouds.5 mph44%30.12 "HgN/A
4:20 PM73 °FPassing clouds.5 mph41%30.09 "HgN/A
3:20 PM72 °FPassing clouds.5 mph44%30.12 "HgN/A
2:20 PM70 °FPassing clouds.6 mph43%30.12 "HgN/A
1:20 PM70 °FPassing clouds.2 mph46%30.15 "HgN/A
12:20 PM68 °FPassing clouds.3 mph49%30.15 "HgN/A
11:20 AM66 °FPassing clouds.5 mph60%30.15 "HgN/A
10:20 AM63 °FPassing clouds.7 mph64%30.15 "HgN/A
9:20 AM59 °FScattered clouds.6 mph68%30.15 "HgN/A
8:20 AM54 °FScattered clouds.6 mph77%30.18 "HgN/A
7:20 AM50 °FScattered clouds.7 mph82%30.15 "HgN/A
6:20 AM52 °FPassing clouds.7 mph77%30.15 "HgN/A
5:20 AM52 °FPassing clouds.6 mph82%30.18 "HgN/A
4:20 AM52 °FPassing clouds.6 mph82%30.18 "HgN/A
3:20 AM54 °FCool.6 mph77%30.18 "HgN/A
2:20 AM54 °FPassing clouds.6 mph77%30.21 "HgN/A
1:20 AM55 °FPassing clouds.6 mph72%30.21 "HgN/A
12:20 AM54 °FPassing clouds.6 mph77%30.21 "HgN/A
11:20 PM
Sat, Sep 24
55 °FPassing clouds.6 mph72%30.21 "HgN/A
10:20 PM55 °FPassing clouds.5 mph72%30.21 "HgN/A
9:20 PM57 °FPassing clouds.5 mph67%30.24 "HgN/A
Weather by CustomWeather, © 2016

See weather overviewHow to use our weather pages